EW1884 Linesoya NO current weather conditions

sailwx.info

Wind from 270 at 2 knots gusting 6

Air temperature 15.0° C
Dewpoint 12.8° C

Last reported at 2020-Aug-11 19:05 UTC.
Time now 2020-Aug-11 19:59 UTC

Location: N 64°01' E 009°53'.
View on Google Maps.

See reports from other nearby stations

  
Tides and Currents Weather Stations Pressure Air Temp Water Temp Dewpoint Dewpoint Depression Visibility Wind Speed Wind Dir Waves Ship Positions
date/time (UTC)wind fromknots sea level pressurealtimeterstation pressurevisibilityair tempwater tempwave heightnotes
2020-Aug-11 19:05 270 2 gusting 6 15.0
2020-Aug-11 18:55 270 4 gusting 6 15.0
2020-Aug-11 18:45 225 3 gusting 6 15.6
2020-Aug-11 18:35 225 2 gusting 5 15.6
2020-Aug-11 18:25 225 3 gusting 6 16.1
2020-Aug-11 18:15 225 3 gusting 7 16.1
2020-Aug-11 18:05 225 3 gusting 6 15.6
2020-Aug-11 17:55 225 3 gusting 6 16.1
2020-Aug-11 17:45 248 3 gusting 6 16.1
2020-Aug-11 17:35 248 3 gusting 6 16.1
2020-Aug-11 17:25 248 3 gusting 6 15.6
2020-Aug-11 17:15 248 4 gusting 6 15.6
2020-Aug-11 17:05 248 3 gusting 6 15.6
2020-Aug-11 16:55 225 4 gusting 6 15.6
2020-Aug-11 16:45 248 4 gusting 6 15.6
2020-Aug-11 16:35 248 4 gusting 7 15.6
2020-Aug-11 16:25 248 5 gusting 7 15.6
2020-Aug-11 16:15 248 4 gusting 7 15.6
2020-Aug-11 16:05 248 4 gusting 8 16.1
2020-Aug-11 15:55 248 4 gusting 7 16.7
2020-Aug-11 15:45 248 4 gusting 7 16.7
2020-Aug-11 15:35 248 5 gusting 7 16.1
2020-Aug-11 15:25 248 4 gusting 8 16.1
2020-Aug-11 15:15 248 3 gusting 6 16.7
2020-Aug-11 15:05 248 4 gusting 8 16.1
2020-Aug-11 14:55 248 5 gusting 7 16.7
2020-Aug-11 14:45 248 5 gusting 7 17.2
2020-Aug-11 14:35 248 5 gusting 7 16.7
2020-Aug-11 14:25 248 5 gusting 7 16.7
2020-Aug-11 14:15 225 4 gusting 7 16.7
2020-Aug-11 14:05 248 5 gusting 9 16.7
2020-Aug-11 13:55 270 6 gusting 9 17.2
2020-Aug-11 13:45 248 5 gusting 8 16.7
2020-Aug-11 13:35 248 4 gusting 7 16.7
2020-Aug-11 13:25 248 5 gusting 8 16.7
2020-Aug-11 13:15 248 6 gusting 8 16.1
2020-Aug-11 13:05 248 5 gusting 8 16.1
2020-Aug-11 12:55 248 4 gusting 7 16.1
2020-Aug-11 12:45 248 4 gusting 7 16.1
2020-Aug-11 12:35 248 4 gusting 6 16.7
2020-Aug-11 12:25 248 5 gusting 7 16.1
2020-Aug-11 12:15 248 4 gusting 7 16.1
2020-Aug-11 12:05 270 4 gusting 6 16.1
2020-Aug-11 11:55 248 3 gusting 5 16.7
2020-Aug-11 11:45 225 4 gusting 8 16.7
2020-Aug-11 11:35 225 5 gusting 7 16.7
2020-Aug-11 11:25 225 4 gusting 6 16.7
2020-Aug-11 11:15 203 6 gusting 10 16.7
2020-Aug-11 11:05 225 5 gusting 7 16.7
2020-Aug-11 10:55 225 5 gusting 9 16.7
2020-Aug-11 10:45 203 5 gusting 8 16.7
2020-Aug-11 10:35 203 5 gusting 10 16.7
2020-Aug-11 10:25 203 6 gusting 8 16.7
2020-Aug-11 10:15 203 5 gusting 8 16.7
2020-Aug-11 10:05 203 5 gusting 9 16.7
2020-Aug-11 09:55 203 6 gusting 11 16.7
2020-Aug-11 09:45 203 6 gusting 10 16.7
2020-Aug-11 09:35 203 6 gusting 11 16.7
2020-Aug-11 09:25 203 6 gusting 10 16.7
2020-Aug-11 09:15 203 6 gusting 9 16.7
2020-Aug-11 09:05 225 6 gusting 9 17.2
2020-Aug-11 08:55 225 6 gusting 10 17.2
2020-Aug-11 08:45 225 6 gusting 10 16.7
2020-Aug-11 08:35 203 6 gusting 11 16.7
2020-Aug-11 08:25 203 5 gusting 8 16.7
2020-Aug-11 08:15 203 5 gusting 8 16.7
2020-Aug-11 08:05 203 3 gusting 6 16.7
2020-Aug-11 07:55 203 5 gusting 9 16.7
2020-Aug-11 07:45 225 4 gusting 8 16.7
2020-Aug-11 07:35 248 3 gusting 6 16.7
2020-Aug-11 07:25 248 3 gusting 6 16.7
2020-Aug-11 07:15 225 3 gusting 6 17.2
2020-Aug-11 07:05 225 2 gusting 5 16.7
2020-Aug-11 06:55 203 0 gusting 3 16.7
2020-Aug-11 06:45 225 2 gusting 5 16.1
2020-Aug-11 06:35 203 1 gusting 2 15.6
2020-Aug-11 06:25 203 1 gusting 2 15.0
2020-Aug-11 06:15 270 2 gusting 6 15.6
2020-Aug-11 06:05 203 2 gusting 4 15.0
2020-Aug-11 05:55 248 4 gusting 9 15.0
2020-Aug-11 05:45 180 0 gusting 1 14.4
2020-Aug-11 05:35 180 0 gusting 1 15.0
2020-Aug-11 05:25 180 0 gusting 1 14.4
2020-Aug-11 05:15 180 0 gusting 1 14.4
2020-Aug-11 05:05 180 0 gusting 2 14.4
2020-Aug-11 04:55 180 0 gusting 2 14.4
2020-Aug-11 04:45 158 0 gusting 2 13.9
2020-Aug-11 04:35 090 0 gusting 1 14.4
2020-Aug-11 04:25 13.9
2020-Aug-11 04:15 13.9
2020-Aug-11 04:05 090 0 gusting 1 13.9
2020-Aug-11 03:55 14.4
2020-Aug-11 03:45 14.4
2020-Aug-11 03:35 135 0 gusting 1 14.4
2020-Aug-11 03:25 068 0 gusting 0 15.0
2020-Aug-11 03:15 068 0 gusting 1 15.0
2020-Aug-11 03:05 15.0
2020-Aug-11 02:55 068 0 gusting 2 15.6
2020-Aug-11 02:45 068 0 gusting 2 15.0
2020-Aug-11 02:35 113 0 gusting 1 14.4
2020-Aug-11 02:25 13.9
2020-Aug-11 02:15 13.9
2020-Aug-11 02:05 090 0 gusting 1 13.9
2020-Aug-11 01:55 13.9
2020-Aug-11 01:45 180 0 gusting 1 13.9
2020-Aug-11 01:35 180 0 gusting 1 13.9
2020-Aug-11 01:25 14.4
2020-Aug-11 01:15 14.4
2020-Aug-11 01:05 14.4
2020-Aug-11 00:55 090 0 gusting 1 14.4
2020-Aug-11 00:45 090 0 gusting 1 14.4
2020-Aug-11 00:35 14.4
2020-Aug-11 00:25 14.4
2020-Aug-11 00:15 090 0 gusting 1 13.9
2020-Aug-11 00:05 14.4
2020-Aug-10 23:55 090 0 gusting 1 14.4
2020-Aug-10 23:45 090 0 gusting 1 14.4
2020-Aug-10 23:35 068 0 gusting 2 14.4
2020-Aug-10 23:25 113 0 gusting 1 14.4
2020-Aug-10 23:15 14.4
2020-Aug-10 23:05 14.4
2020-Aug-10 22:55 14.4
2020-Aug-10 22:45 14.4
2020-Aug-10 22:35 15.0
2020-Aug-10 22:25 15.0
2020-Aug-10 22:15 068 1 gusting 2 15.0
2020-Aug-10 22:05 15.0
2020-Aug-10 21:55 15.0
2020-Aug-10 21:45 068 0 gusting 0 15.0
2020-Aug-10 21:35 068 0 gusting 0 15.0
2020-Aug-10 21:25 068 0 gusting 1 15.6
2020-Aug-10 21:15 068 1 gusting 1 15.0
2020-Aug-10 21:05 15.0
2020-Aug-10 20:55 15.0
2020-Aug-10 20:45 068 0 gusting 1 15.0
2020-Aug-10 20:35 15.0
2020-Aug-10 20:25 15.0
2020-Aug-10 20:15 068 1 gusting 3 15.6
2020-Aug-10 20:05 068 3 gusting 4 15.6
2020-Aug-10 19:55 045 2 gusting 5 15.6
2020-Aug-10 19:45 068 3 gusting 4 16.1
2020-Aug-10 19:35 068 2 gusting 5 16.1
2020-Aug-10 19:25 068 3 gusting 5 16.7
2020-Aug-10 19:15 045 2 gusting 6 16.7
2020-Aug-10 19:05 045 2 gusting 5 16.7
2020-Aug-10 18:55 045 3 gusting 5 16.7
2020-Aug-10 18:45 045 4 gusting 7 16.7
2020-Aug-10 18:35 045 3 gusting 7 16.7
2020-Aug-10 18:25 090 2 gusting 6 17.2
2020-Aug-10 18:15 068 2 gusting 6 17.2
2020-Aug-10 18:05 068 3 gusting 7 17.8
2020-Aug-10 17:55 068 3 gusting 7 17.8
2020-Aug-10 17:45 068 3 gusting 6 17.8
2020-Aug-10 17:35 068 4 gusting 7 17.8
2020-Aug-10 17:25 045 3 gusting 6 17.8
2020-Aug-10 17:15 045 2 gusting 5 18.3
2020-Aug-10 17:05 045 3 gusting 6 18.3
2020-Aug-10 16:55 045 3 gusting 6 18.3
2020-Aug-10 16:45 023 4 gusting 6 18.3
2020-Aug-10 16:35 023 3 gusting 6 17.8
2020-Aug-10 16:10 023 4 gusting 7 18.3
2020-Aug-10 16:00 023 5 gusting 8 18.3
2020-Aug-10 15:50 045 5 gusting 9 18.3
2020-Aug-10 15:40 023 6 gusting 9 18.3
2020-Aug-10 15:30 023 6 gusting 9 18.9
2020-Aug-10 15:20 045 6 gusting 9 18.9
2020-Aug-10 15:10 045 5 gusting 8 18.9
2020-Aug-10 15:00 045 6 gusting 9 18.3
2020-Aug-10 14:50 045 5 gusting 8 18.3
2020-Aug-10 14:40 023 6 gusting 9 18.3
2020-Aug-10 14:30 045 6 gusting 9 18.3
2020-Aug-10 14:20 023 6 gusting 9 18.3
2020-Aug-10 14:10 045 7 gusting 12 18.3
2020-Aug-10 14:00 023 6 gusting 10 18.3
2020-Aug-10 13:50 045 5 gusting 9 18.3
2020-Aug-10 13:40 045 5 gusting 11 18.3
2020-Aug-10 13:30 045 7 gusting 11 17.8
2020-Aug-10 13:20 045 5 gusting 9 17.8
2020-Aug-10 13:10 045 4 gusting 7 18.3
2020-Aug-10 13:00 023 5 gusting 8 18.3
2020-Aug-10 12:50 023 4 gusting 7 18.3
2020-Aug-10 12:40 023 5 gusting 9 18.3
2020-Aug-10 12:30 023 5 gusting 8 18.3
2020-Aug-10 12:20 18.3
2020-Aug-10 12:10 023 4 gusting 8 18.3
2020-Aug-10 12:00 045 4 gusting 8 17.8
2020-Aug-10 11:50 045 4 gusting 8 17.8
2020-Aug-10 11:40 045 4 gusting 8 17.8
2020-Aug-10 11:30 045 4 gusting 7 18.3
2020-Aug-10 11:20 045 4 gusting 8 17.8
2020-Aug-10 11:10 023 4 gusting 7 17.8
2020-Aug-10 11:00 023 5 gusting 7 17.8
2020-Aug-10 10:50 045 3 gusting 5 17.8
2020-Aug-10 10:40 045 3 gusting 6 17.8
2020-Aug-10 10:30 023 5 gusting 8 17.2
2020-Aug-10 10:20 17.8
2020-Aug-10 10:10 17.8
2020-Aug-10 10:00 023 4 gusting 7 17.2
2020-Aug-10 09:50 17.2
2020-Aug-10 09:40 17.2
2020-Aug-10 09:30 023 3 gusting 6 17.2
2020-Aug-10 09:20 17.2
2020-Aug-10 09:10 338 5 gusting 8 17.2
2020-Aug-10 09:00 338 4 gusting 7 17.2
2020-Aug-10 08:50 338 3 gusting 5 17.2
2020-Aug-10 08:40 113 0 gusting 3 17.2
2020-Aug-10 08:30 090 1 gusting 2 16.7
2020-Aug-10 08:20 068 1 gusting 3 16.7
2020-Aug-10 08:10 068 1 gusting 3 16.1
2020-Aug-10 08:00 090 1 gusting 2 15.6
2020-Aug-10 07:50 113 1 gusting 3 15.0
2020-Aug-10 07:40 113 1 gusting 2 15.0
2020-Aug-10 07:30 090 1 gusting 3 15.6
2020-Aug-10 07:20 068 1 gusting 2 16.1
2020-Aug-10 07:10 068 0 gusting 3 16.1
2020-Aug-10 07:00 090 1 gusting 3 16.1
2020-Aug-10 06:50 023 1 gusting 3 15.6
2020-Aug-10 06:40 090 0 gusting 2 15.0
2020-Aug-10 06:30 225 0 gusting 1 14.4
2020-Aug-10 06:20 315 0 gusting 1 13.9
2020-Aug-10 06:10 13.9
2020-Aug-10 06:00 14.4
2020-Aug-10 05:50 14.4
2020-Aug-10 05:40 113 1 gusting 6 14.4
2020-Aug-10 05:30 068 1 gusting 3 14.4
2020-Aug-10 05:20 090 3 gusting 7 14.4
2020-Aug-10 05:10 090 1 gusting 6 14.4
2020-Aug-10 05:00 090 3 gusting 6 14.4
2020-Aug-10 04:50 090 3 gusting 6 13.9
2020-Aug-10 04:40 090 6 gusting 9 13.9
2020-Aug-10 04:30 090 5 gusting 7 13.9
2020-Aug-10 04:20 068 3 gusting 7 13.9
2020-Aug-10 04:10 068 5 gusting 8 13.9
2020-Aug-10 04:00 068 3 gusting 8 13.9
2020-Aug-10 03:50 090 3 gusting 7 13.9
2020-Aug-10 03:40 090 3 gusting 9 13.9
2020-Aug-10 03:30 068 4 gusting 7 13.3
2020-Aug-10 03:20 090 3 gusting 7 13.3
2020-Aug-10 03:10 068 3 gusting 6 13.3
2020-Aug-10 03:00 090 4 gusting 6 13.3
2020-Aug-10 02:50 090 4 gusting 7 13.3
2020-Aug-10 02:40 090 4 gusting 7 12.8
2020-Aug-10 02:30 090 5 gusting 7 12.8
2020-Aug-10 02:20 090 2 gusting 6 12.8
2020-Aug-10 02:10 090 5 gusting 8 13.3
2020-Aug-10 02:00 090 4 gusting 7 13.3
2020-Aug-10 01:50 090 4 gusting 7 12.8
2020-Aug-10 01:40 090 4 gusting 6 12.8
2020-Aug-10 01:30 090 4 gusting 7 12.8
2020-Aug-10 01:20 068 3 gusting 6 12.8
2020-Aug-10 01:10 090 4 gusting 7 12.8
2020-Aug-10 01:00 068 4 gusting 6 12.8
2020-Aug-10 00:50 090 5 gusting 6 12.8
2020-Aug-10 00:40 068 3 gusting 6 12.8
2020-Aug-10 00:30 068 2 gusting 6 12.8
2020-Aug-10 00:20 090 2 gusting 6 12.8
2020-Aug-10 00:10 068 2 gusting 6 12.8
2020-Aug-10 00:00 068 5 gusting 7 12.8
2020-Aug-09 23:50 090 3 gusting 5 12.8
2020-Aug-09 23:40 090 3 gusting 6 12.8
2020-Aug-09 23:30 068 1 gusting 3 12.2
2020-Aug-09 23:20 090 3 gusting 5 12.8
2020-Aug-09 23:10 068 2 gusting 6 12.2
2020-Aug-09 23:00 068 2 gusting 6 12.8
2020-Aug-09 22:50 068 3 gusting 6 12.8
2020-Aug-09 22:40 068 3 gusting 6 12.8
2020-Aug-09 22:30 068 2 gusting 4 12.2
2020-Aug-09 22:20 068 3 gusting 6 12.8
2020-Aug-09 22:10 068 3 gusting 7 12.8
2020-Aug-09 22:00 068 2 gusting 5 12.2
2020-Aug-09 21:50 045 1 gusting 4 12.2
2020-Aug-09 21:40 068 1 gusting 4 12.8
2020-Aug-09 21:30 068 2 gusting 4 12.8
2020-Aug-09 21:20 068 1 gusting 4 12.8
2020-Aug-09 21:10 068 2 gusting 6 12.8
2020-Aug-09 21:00 068 1 gusting 3 12.2
2020-Aug-09 20:50 068 1 gusting 3 12.8
2020-Aug-09 20:40 045 1 gusting 2 12.8
2020-Aug-09 20:30 068 2 gusting 5 12.8
2020-Aug-09 20:20 045 2 gusting 6 12.8
2020-Aug-09 20:10 068 3 gusting 6 12.8
2020-Aug-09 20:00 068 1 gusting 3 12.8
2020-Aug-09 19:50 068 2 gusting 6 13.3
2020-Aug-09 19:40 045 2 gusting 4 13.3
2020-Aug-09 19:30 068 3 gusting 6 13.3
2020-Aug-09 19:20 068 2 gusting 4 13.9
2020-Aug-09 19:10 045 2 gusting 5 13.9
2020-Aug-09 19:00 045 2 gusting 5 13.9